Wetterdaten: Samstag, 11.04.2015
Datum Zeit Temp. A. Feuchte A. Luftdruck Regen Wind Richtung Richtung Sonnenschein ET UV Solar Taupunkt Windchill Windben Empfang
11.04.2015 00:00 8,7 C 73 % 1019,6 hPa 0,0 l/m 0,0 km/h (0 Bft) SO 135 0 min 0,000 mm 0,0 UV-I 0 W/m 4,1 C 8,7 C 0,0 km/h (0 Bft) 0,00 %
11.04.2015 00:15 8,8 C 72 % 1019,6 hPa 0,0 l/m 0,0 km/h (0 Bft) S 182 0 min 0,000 mm 0,0 UV-I 0 W/m 4,0 C 8,8 C 0,0 km/h (0 Bft) 0,00 %
11.04.2015 00:30 8,5 C 75 % 1019,5 hPa 0,0 l/m 0,0 km/h (0 Bft) S 182 0 min 0,000 mm 0,0 UV-I 0 W/m 4,3 C 8,5 C 0,0 km/h (0 Bft) 0,00 %
11.04.2015 00:45 7,9 C 78 % 1019,5 hPa 0,0 l/m 0,0 km/h (0 Bft) S 182 0 min 0,000 mm 0,0 UV-I 0 W/m 4,3 C 7,9 C 0,0 km/h (0 Bft) 0,00 %
11.04.2015 01:00 7,5 C 79 % 1019,7 hPa 0,0 l/m 0,0 km/h (0 Bft) S 182 0 min 0,000 mm 0,0 UV-I 0 W/m 4,1 C 7,5 C 0,0 km/h (0 Bft) 0,00 %
11.04.2015 01:15 7,4 C 79 % 1019,7 hPa 0,0 l/m 0,0 km/h (0 Bft) S 182 0 min 0,000 mm 0,0 UV-I 0 W/m 4,0 C 7,4 C 0,0 km/h (0 Bft) 0,00 %
11.04.2015 01:30 7,2 C 80 % 1019,6 hPa 0,0 l/m 0,0 km/h (0 Bft) S 182 0 min 0,000 mm 0,0 UV-I 0 W/m 4,0 C 7,2 C 0,0 km/h (0 Bft) 0,00 %
11.04.2015 01:45 6,7 C 81 % 1019,5 hPa 0,0 l/m 0,0 km/h (0 Bft) S 182 0 min 0,000 mm 0,0 UV-I 0 W/m 3,7 C 6,7 C 0,0 km/h (0 Bft) 0,00 %
11.04.2015 02:00 6,7 C 80 % 1019,6 hPa 0,0 l/m 0,0 km/h (0 Bft) S 182 0 min 0,000 mm 0,0 UV-I 0 W/m 3,5 C 6,7 C 0,0 km/h (0 Bft) 0,00 %
11.04.2015 02:15 7,1 C 79 % 1019,4 hPa 0,0 l/m 0,0 km/h (0 Bft) S 182 0 min 0,000 mm 0,0 UV-I 0 W/m 3,7 C 7,1 C 0,0 km/h (0 Bft) 0,00 %
11.04.2015 02:30 7,1 C 79 % 1019,3 hPa 0,0 l/m 0,0 km/h (0 Bft) S 182 0 min 0,000 mm 0,0 UV-I 0 W/m 3,7 C 7,1 C 0,0 km/h (0 Bft) 0,00 %
11.04.2015 02:45 6,7 C 81 % 1019,3 hPa 0,0 l/m 0,0 km/h (0 Bft) S 182 0 min 0,000 mm 0,0 UV-I 0 W/m 3,7 C 6,7 C 0,0 km/h (0 Bft) 0,00 %
11.04.2015 03:00 6,2 C 82 % 1019,5 hPa 0,0 l/m 0,0 km/h (0 Bft) S 182 0 min 0,000 mm 0,0 UV-I 0 W/m 3,4 C 6,2 C 0,0 km/h (0 Bft) 0,00 %
11.04.2015 03:15 5,8 C 82 % 1019,6 hPa 0,0 l/m 0,0 km/h (0 Bft) S 182 0 min 0,000 mm 0,0 UV-I 0 W/m 3,0 C 5,8 C 0,0 km/h (0 Bft) 0,00 %
11.04.2015 03:30 5,6 C 84 % 1019,7 hPa 0,0 l/m 0,0 km/h (0 Bft) S 175 0 min 0,000 mm 0,0 UV-I 0 W/m 3,1 C 5,6 C 0,0 km/h (0 Bft) 0,00 %
11.04.2015 03:45 5,7 C 84 % 1019,6 hPa 0,0 l/m 0,0 km/h (0 Bft) S 183 0 min 0,000 mm 0,0 UV-I 0 W/m 3,2 C 5,7 C 0,0 km/h (0 Bft) 0,00 %
11.04.2015 04:00 5,5 C 85 % 1019,6 hPa 0,0 l/m 0,0 km/h (0 Bft) S 183 0 min 0,000 mm 0,0 UV-I 0 W/m 3,2 C 5,5 C 0,0 km/h (0 Bft) 0,00 %
11.04.2015 04:15 5,2 C 85 % 1019,6 hPa 0,0 l/m 0,0 km/h (0 Bft) S 183 0 min 0,000 mm 0,0 UV-I 0 W/m 2,9 C 5,2 C 0,0 km/h (0 Bft) 0,00 %
11.04.2015 04:30 5,0 C 87 % 1019,6 hPa 0,0 l/m 0,0 km/h (0 Bft) S 183 0 min 0,000 mm 0,0 UV-I 0 W/m 3,0 C 5,0 C 0,0 km/h (0 Bft) 0,00 %
11.04.2015 04:45 5,1 C 86 % 1019,5 hPa 0,0 l/m 0,0 km/h (0 Bft) S 183 0 min 0,000 mm 0,0 UV-I 0 W/m 3,0 C 5,1 C 0,0 km/h (0 Bft) 0,00 %
11.04.2015 05:00 5,0 C 86 % 1019,7 hPa 0,0 l/m 0,0 km/h (0 Bft) S 183 0 min 0,000 mm 0,0 UV-I 0 W/m 2,9 C 5,0 C 0,0 km/h (0 Bft) 0,00 %
11.04.2015 05:15 4,5 C 87 % 1020,0 hPa 0,0 l/m 0,0 km/h (0 Bft) S 177 0 min 0,000 mm 0,0 UV-I 0 W/m 2,5 C 4,5 C 0,0 km/h (0 Bft) 0,00 %
11.04.2015 05:30 4,9 C 87 % 1020,1 hPa 0,0 l/m 0,0 km/h (0 Bft) S 190 0 min 0,000 mm 0,0 UV-I 0 W/m 2,9 C 4,9 C 0,0 km/h (0 Bft) 0,00 %
11.04.2015 05:45 5,0 C 86 % 1019,9 hPa 0,0 l/m 0,0 km/h (0 Bft) S 189 0 min 0,000 mm 0,0 UV-I 0 W/m 2,9 C 5,0 C 0,0 km/h (0 Bft) 0,00 %
11.04.2015 06:00 4,9 C 85 % 1020,2 hPa 0,0 l/m 0,0 km/h (0 Bft) S-SW 194 0 min 0,000 mm 0,0 UV-I 0 W/m 2,6 C 4,9 C 0,0 km/h (0 Bft) 0,00 %
11.04.2015 06:15 4,7 C 85 % 1020,1 hPa 0,0 l/m 0,0 km/h (0 Bft) S 184 0 min 0,000 mm 0,0 UV-I 0 W/m 2,4 C 4,7 C 0,0 km/h (0 Bft) 0,00 %
11.04.2015 06:30 4,5 C 85 % 1020,3 hPa 0,0 l/m 0,0 km/h (0 Bft) S 180 0 min 0,000 mm 0,0 UV-I 2 W/m 2,2 C 4,5 C 0,0 km/h (0 Bft) 0,00 %
11.04.2015 06:45 4,3 C 86 % 1020,6 hPa 0,0 l/m 0,0 km/h (0 Bft) S 182 15 min 0,000 mm 0,0 UV-I 27 W/m 2,2 C 4,3 C 0,0 km/h (0 Bft) 0,00 %
11.04.2015 07:00 5,1 C 85 % 1020,9 hPa 0,0 l/m 0,0 km/h (0 Bft) S-SW 196 15 min 0,000 mm 0,0 UV-I 80 W/m 2,8 C 5,1 C 0,0 km/h (0 Bft) 0,00 %
11.04.2015 07:15 6,7 C 80 % 1021,0 hPa 0,0 l/m 0,0 km/h (0 Bft) S-SW 196 15 min 0,000 mm 1,0 UV-I 106 W/m 3,5 C 6,7 C 0,0 km/h (0 Bft) 0,00 %
11.04.2015 07:30 8,6 C 71 % 1020,9 hPa 0,0 l/m 0,0 km/h (0 Bft) S-SW 197 15 min 0,000 mm 1,0 UV-I 157 W/m 3,6 C 8,6 C 0,0 km/h (0 Bft) 0,00 %
11.04.2015 07:45 9,1 C 69 % 1020,9 hPa 0,0 l/m 0,0 km/h (0 Bft) S 188 15 min 0,000 mm 1,0 UV-I 133 W/m 3,7 C 9,1 C 0,0 km/h (0 Bft) 0,00 %
11.04.2015 08:00 8,7 C 71 % 1021,4 hPa 0,0 l/m 0,0 km/h (0 Bft) SW 231 0 min 0,000 mm 1,0 UV-I 137 W/m 3,7 C 8,7 C 0,0 km/h (0 Bft) 0,00 %
11.04.2015 08:15 8,8 C 71 % 1021,0 hPa 0,0 l/m 0,0 km/h (0 Bft) SO 138 0 min 0,000 mm 1,0 UV-I 132 W/m 3,8 C 8,8 C 0,0 km/h (0 Bft) 0,00 %
11.04.2015 08:30 9,4 C 69 % 1021,5 hPa 0,0 l/m 0,0 km/h (0 Bft) S-SW 195 0 min 0,000 mm 1,0 UV-I 126 W/m 4,0 C 9,4 C 0,0 km/h (0 Bft) 0,00 %
11.04.2015 08:45 9,8 C 67 % 1021,4 hPa 0,0 l/m 0,0 km/h (0 Bft) S 191 0 min 0,000 mm 2,0 UV-I 127 W/m 4,0 C 9,8 C 0,0 km/h (0 Bft) 0,00 %
11.04.2015 09:00 11,7 C 61 % 1021,1 hPa 0,0 l/m 0,7 km/h (0 Bft) SO 133 15 min 0,000 mm 2,0 UV-I 238 W/m 4,4 C 11,7 C 4,0 km/h (1 Bft) 0,00 %
11.04.2015 09:15 13,1 C 57 % 1021,0 hPa 0,0 l/m 5,8 km/h (2 Bft) W-SW 255 0 min 0,000 mm 2,0 UV-I 237 W/m 4,8 C 13,1 C 7,9 km/h (2 Bft) 0,00 %
11.04.2015 09:30 12,7 C 57 % 1021,1 hPa 0,0 l/m 0,0 km/h (0 Bft) W-SW 241 0 min 0,000 mm 2,0 UV-I 240 W/m 4,4 C 12,7 C 0,0 km/h (0 Bft) 0,00 %
11.04.2015 09:45 13,5 C 56 % 1019,8 hPa 0,0 l/m 0,0 km/h (0 Bft) W-SW 256 0 min 0,000 mm 2,0 UV-I 234 W/m 4,9 C 13,5 C 0,0 km/h (0 Bft) 0,00 %
11.04.2015 10:00 14,8 C 51 % 1019,9 hPa 0,0 l/m 0,0 km/h (0 Bft) S-SW 196 0 min 0,000 mm 3,0 UV-I 303 W/m 4,8 C 14,8 C 0,0 km/h (0 Bft) 0,00 %
11.04.2015 10:15 15,6 C 45 % 1019,5 hPa 0,0 l/m 5,8 km/h (2 Bft) S-SW 201 15 min 0,000 mm 3,0 UV-I 338 W/m 3,7 C 15,6 C 7,9 km/h (2 Bft) 0,00 %
11.04.2015 10:30 17,2 C 42 % 1019,3 hPa 0,0 l/m 7,9 km/h (2 Bft) W-NW 295 15 min 0,000 mm 4,0 UV-I 496 W/m 4,2 C 16,5 C 7,9 km/h (2 Bft) 0,00 %
11.04.2015 10:45 17,8 C 37 % 1019,1 hPa 0,0 l/m 2,9 km/h (1 Bft) NW 321 15 min 0,000 mm 3,0 UV-I 373 W/m 2,9 C 17,8 C 4,0 km/h (1 Bft) 0,00 %
11.04.2015 11:00 17,2 C 42 % 1019,3 hPa 0,0 l/m 2,9 km/h (1 Bft) S-SW 194 15 min 0,000 mm 4,0 UV-I 533 W/m 4,2 C 17,2 C 4,0 km/h (1 Bft) 0,00 %
11.04.2015 11:15 17,8 C 38 % 1019,2 hPa 0,0 l/m 0,4 km/h (0 Bft) W-NW 297 15 min 0,000 mm 4,0 UV-I 457 W/m 3,3 C 17,8 C 4,0 km/h (1 Bft) 0,00 %
11.04.2015 11:30 18,0 C 35 % 1019,2 hPa 0,0 l/m 9,4 km/h (2 Bft) SW 236 15 min 0,000 mm 4,0 UV-I 593 W/m 2,3 C 16,7 C 11,9 km/h (2 Bft) 0,00 %
11.04.2015 11:45 18,7 C 34 % 1019,2 hPa 0,0 l/m 1,4 km/h (1 Bft) W 278 15 min 0,000 mm 5,0 UV-I 511 W/m 2,5 C 18,7 C 4,0 km/h (1 Bft) 0,00 %
11.04.2015 12:00 18,7 C 36 % 1018,9 hPa 0,0 l/m 1,4 km/h (1 Bft) S-SW 208 15 min 0,000 mm 5,0 UV-I 597 W/m 3,3 C 18,7 C 4,0 km/h (1 Bft) 0,00 %
11.04.2015 12:15 18,6 C 36 % 1018,9 hPa 0,0 l/m 6,8 km/h (2 Bft) W-NW 288 15 min 0,000 mm 5,0 UV-I 622 W/m 3,2 C 18,4 C 7,9 km/h (2 Bft) 0,00 %
11.04.2015 12:30 18,5 C 35 % 1018,9 hPa 0,0 l/m 7,9 km/h (2 Bft) W 274 15 min 0,000 mm 5,0 UV-I 625 W/m 2,8 C 17,8 C 11,9 km/h (2 Bft) 0,00 %
11.04.2015 12:45 18,4 C 37 % 1018,8 hPa 0,0 l/m 1,8 km/h (1 Bft) S 176 15 min 0,000 mm 5,0 UV-I 646 W/m 3,5 C 18,4 C 4,0 km/h (1 Bft) 0,00 %
11.04.2015 13:00 18,2 C 36 % 1018,6 hPa 0,0 l/m 14,8 km/h (3 Bft) NW 311 15 min 0,000 mm 5,0 UV-I 573 W/m 2,9 C 15,1 C 19,8 km/h (3 Bft) 0,00 %
11.04.2015 13:15 18,9 C 37 % 1018,9 hPa 0,0 l/m 14,4 km/h (3 Bft) W-SW 256 15 min 0,000 mm 4,0 UV-I 495 W/m 3,9 C 16,1 C 19,8 km/h (3 Bft) 0,00 %
11.04.2015 13:30 18,6 C 38 % 1018,7 hPa 0,0 l/m 6,8 km/h (2 Bft) W-NW 284 0 min 0,000 mm 5,0 UV-I 357 W/m 4,0 C 18,4 C 7,9 km/h (2 Bft) 0,00 %
11.04.2015 13:45 19,0 C 37 % 1018,6 hPa 0,0 l/m 5,4 km/h (1 Bft) SW 232 15 min 0,000 mm 4,0 UV-I 687 W/m 4,0 C 19,0 C 11,9 km/h (2 Bft) 0,00 %
11.04.2015 14:00 19,2 C 34 % 1018,5 hPa 0,0 l/m 12,2 km/h (2 Bft) W-SW 243 15 min 0,000 mm 4,0 UV-I 734 W/m 3,0 C 17,0 C 15,8 km/h (3 Bft) 0,00 %
11.04.2015 14:15 19,1 C 33 % 1018,7 hPa 0,0 l/m 6,5 km/h (2 Bft) W 265 15 min 0,000 mm 4,0 UV-I 676 W/m 2,5 C 19,1 C 7,9 km/h (2 Bft) 0,00 %
11.04.2015 14:30 19,2 C 32 % 1018,5 hPa 0,0 l/m 0,7 km/h (0 Bft) W-NW 295 15 min 0,000 mm 4,0 UV-I 709 W/m 2,1 C 19,2 C 4,0 km/h (1 Bft) 0,00 %
11.04.2015 14:45 19,9 C 31 % 1018,5 hPa 0,0 l/m 7,2 km/h (2 Bft) SW 226 15 min 0,000 mm 3,0 UV-I 733 W/m 2,3 C 19,6 C 11,9 km/h (2 Bft) 0,00 %
11.04.2015 15:00 20,0 C 32 % 1018,8 hPa 0,0 l/m 5,4 km/h (1 Bft) S-SW 197 15 min 0,000 mm 2,0 UV-I 749 W/m 2,8 C 20,0 C 7,9 km/h (2 Bft) 0,00 %
11.04.2015 15:15 19,6 C 34 % 1018,4 hPa 0,0 l/m 7,2 km/h (2 Bft) SW 227 15 min 0,000 mm 2,0 UV-I 691 W/m 3,3 C 19,3 C 11,9 km/h (2 Bft) 0,00 %
11.04.2015 15:30 18,9 C 34 % 1018,6 hPa 0,0 l/m 2,9 km/h (1 Bft) SW 225 15 min 0,000 mm 3,0 UV-I 745 W/m 2,7 C 18,9 C 7,9 km/h (2 Bft) 0,00 %
11.04.2015 15:45 19,5 C 35 % 1018,6 hPa 0,0 l/m 7,9 km/h (2 Bft) W-SW 241 0 min 0,000 mm 2,0 UV-I 288 W/m 3,6 C 18,9 C 11,9 km/h (2 Bft) 0,00 %
11.04.2015 16:00 19,1 C 38 % 1018,6 hPa 0,0 l/m 14,0 km/h (3 Bft) W-SW 255 0 min 0,000 mm 2,0 UV-I 301 W/m 4,4 C 16,4 C 15,8 km/h (3 Bft) 0,00 %
11.04.2015 16:15 19,0 C 35 % 1018,9 hPa 0,0 l/m 7,2 km/h (2 Bft) W-SW 252 0 min 0,000 mm 2,0 UV-I 262 W/m 3,2 C 18,6 C 11,9 km/h (2 Bft) 0,00 %
11.04.2015 16:30 18,8 C 36 % 1018,9 hPa 0,0 l/m 10,8 km/h (2 Bft) NW 312 0 min 0,000 mm 2,0 UV-I 273 W/m 3,4 C 17,0 C 15,8 km/h (3 Bft) 0,00 %
11.04.2015 16:45 18,9 C 36 % 1018,8 hPa 0,0 l/m 11,5 km/h (2 Bft) SW 229 15 min 0,000 mm 2,0 UV-I 281 W/m 3,5 C 16,9 C 15,8 km/h (3 Bft) 0,00 %
11.04.2015 17:00 19,1 C 35 % 1018,9 hPa 0,0 l/m 4,3 km/h (1 Bft) N-NW 334 15 min 0,000 mm 2,0 UV-I 284 W/m 3,3 C 19,1 C 7,9 km/h (2 Bft) 0,00 %
11.04.2015 17:15 18,3 C 38 % 1019,5 hPa 0,0 l/m 0,4 km/h (0 Bft) W-SW 253 0 min 0,000 mm 1,0 UV-I 187 W/m 3,7 C 18,3 C 4,0 km/h (1 Bft) 0,00 %
11.04.2015 17:30 17,8 C 37 % 1019,6 hPa 0,0 l/m 4,0 km/h (1 Bft) N-NW 348 15 min 0,000 mm 1,0 UV-I 206 W/m 2,9 C 17,8 C 7,9 km/h (2 Bft) 0,00 %
11.04.2015 17:45 17,8 C 37 % 1019,6 hPa 0,0 l/m 5,8 km/h (2 Bft) W-SW 256 15 min 0,000 mm 1,0 UV-I 228 W/m 2,9 C 17,8 C 7,9 km/h (2 Bft) 0,00 %
11.04.2015 18:00 17,2 C 40 % 1020,2 hPa 0,0 l/m 0,0 km/h (0 Bft) SW 231 0 min 0,000 mm 1,0 UV-I 104 W/m 3,5 C 17,2 C 0,0 km/h (0 Bft) 0,00 %
11.04.2015 18:15 16,4 C 43 % 1020,7 hPa 0,0 l/m 6,8 km/h (2 Bft) W-SW 256 0 min 0,000 mm 1,0 UV-I 80 W/m 3,8 C 16,2 C 11,9 km/h (2 Bft) 0,00 %
11.04.2015 18:30 16,3 C 43 % 1020,6 hPa 0,0 l/m 0,0 km/h (0 Bft) S 186 0 min 0,000 mm 1,0 UV-I 82 W/m 3,7 C 16,3 C 0,0 km/h (0 Bft) 0,00 %
11.04.2015 18:45 16,0 C 44 % 1020,8 hPa 0,0 l/m 0,0 km/h (0 Bft) S 187 0 min 0,000 mm 0,0 UV-I 64 W/m 3,8 C 16,0 C 0,0 km/h (0 Bft) 0,00 %
11.04.2015 19:00 16,0 C 46 % 1020,7 hPa 0,0 l/m 1,4 km/h (1 Bft) W-SW 251 15 min 0,000 mm 0,0 UV-I 82 W/m 4,4 C 16,0 C 4,0 km/h (1 Bft) 0,00 %
11.04.2015 19:15 15,7 C 47 % 1021,0 hPa 0,0 l/m 4,0 km/h (1 Bft) W-NW 287 15 min 0,000 mm 0,0 UV-I 99 W/m 4,4 C 15,7 C 7,9 km/h (2 Bft) 0,00 %
11.04.2015 19:30 15,2 C 51 % 1021,5 hPa 0,0 l/m 2,9 km/h (1 Bft) W-SW 257 15 min 0,000 mm 0,0 UV-I 34 W/m 5,1 C 15,2 C 4,0 km/h (1 Bft) 0,00 %
11.04.2015 19:45 14,3 C 53 % 1021,7 hPa 0,0 l/m 0,0 km/h (0 Bft) W-NW 282 0 min 0,000 mm 0,0 UV-I 1 W/m 4,9 C 14,3 C 0,0 km/h (0 Bft) 0,00 %
11.04.2015 20:00 13,6 C 55 % 1022,5 hPa 0,0 l/m 0,0 km/h (0 Bft) S-SW 204 0 min 0,000 mm 0,0 UV-I 0 W/m 4,7 C 13,6 C 0,0 km/h (0 Bft) 0,00 %
11.04.2015 20:15 13,3 C 57 % 1022,6 hPa 0,0 l/m 0,0 km/h (0 Bft) W-SW 256 0 min 0,000 mm 0,0 UV-I 0 W/m 5,0 C 13,3 C 0,0 km/h (0 Bft) 0,00 %
11.04.2015 20:30 13,0 C 58 % 1023,0 hPa 0,0 l/m 2,2 km/h (1 Bft) W-NW 293 0 min 0,000 mm 0,0 UV-I 0 W/m 4,9 C 13,0 C 4,0 km/h (1 Bft) 0,00 %
11.04.2015 20:45 13,1 C 57 % 1023,5 hPa 0,0 l/m 1,4 km/h (1 Bft) O-SO 121 0 min 0,000 mm 0,0 UV-I 0 W/m 4,8 C 13,1 C 4,0 km/h (1 Bft) 0,00 %
11.04.2015 21:00 13,4 C 57 % 1023,5 hPa 0,0 l/m 0,0 km/h (0 Bft) S-SW 212 0 min 0,000 mm 0,0 UV-I 0 W/m 5,1 C 13,4 C 0,0 km/h (0 Bft) 0,00 %
11.04.2015 21:15 13,4 C 55 % 1023,6 hPa 0,0 l/m 1,4 km/h (1 Bft) SW 227 0 min 0,000 mm 0,0 UV-I 0 W/m 4,5 C 13,4 C 4,0 km/h (1 Bft) 0,00 %
11.04.2015 21:30 13,5 C 54 % 1024,2 hPa 0,0 l/m 9,0 km/h (2 Bft) SW 221 0 min 0,000 mm 0,0 UV-I 0 W/m 4,4 C 12,0 C 11,9 km/h (2 Bft) 0,00 %
11.04.2015 21:45 13,4 C 57 % 1024,4 hPa 0,0 l/m 6,5 km/h (2 Bft) N-NW 339 0 min 0,000 mm 0,0 UV-I 0 W/m 5,1 C 13,4 C 15,8 km/h (3 Bft) 0,00 %
11.04.2015 22:00 13,3 C 56 % 1024,4 hPa 0,0 l/m 5,8 km/h (2 Bft) W 281 0 min 0,000 mm 0,0 UV-I 0 W/m 4,7 C 13,3 C 7,9 km/h (2 Bft) 0,00 %
11.04.2015 22:15 13,2 C 56 % 1024,4 hPa 0,0 l/m 8,3 km/h (2 Bft) W-SW 237 0 min 0,000 mm 0,0 UV-I 0 W/m 4,6 C 12,0 C 11,9 km/h (2 Bft) 0,00 %
11.04.2015 22:30 13,0 C 57 % 1024,6 hPa 0,0 l/m 2,9 km/h (1 Bft) S-SO 151 0 min 0,000 mm 0,0 UV-I 0 W/m 4,7 C 13,0 C 4,0 km/h (1 Bft) 0,00 %
11.04.2015 22:45 12,9 C 56 % 1025,0 hPa 0,0 l/m 0,4 km/h (0 Bft) O 95 0 min 0,000 mm 0,0 UV-I 0 W/m 4,3 C 12,9 C 4,0 km/h (1 Bft) 0,00 %
11.04.2015 23:00 12,9 C 56 % 1025,0 hPa 0,0 l/m 0,7 km/h (0 Bft) O-SO 122 0 min 0,000 mm 0,0 UV-I 0 W/m 4,3 C 12,9 C 4,0 km/h (1 Bft) 0,00 %
11.04.2015 23:15 12,8 C 55 % 1025,2 hPa 0,0 l/m 2,9 km/h (1 Bft) W-SW 255 0 min 0,000 mm 0,0 UV-I 0 W/m 4,0 C 12,8 C 7,9 km/h (2 Bft) 0,00 %
11.04.2015 23:30 12,7 C 57 % 1025,6 hPa 0,0 l/m 0,0 km/h (0 Bft) NW 305 0 min 0,000 mm 0,0 UV-I 0 W/m 4,4 C 12,7 C 0,0 km/h (0 Bft) 0,00 %
11.04.2015 23:45 12,6 C 57 % 1025,9 hPa 0,0 l/m 1,8 km/h (1 Bft) W-SW 237 0 min 0,000 mm 0,0 UV-I 0 W/m 4,3 C 12,6 C 4,0 km/h (1 Bft) 0,00 %
_ Min-Zeit 06:45 14:45 15:15 - 00:00 - - - - - - 14:30 06:45 00:00 00:00
Minimum _ 4,3 C 31 % 1018,4 hPa - 0,0 km/h (0 Bft) - - - - - - 2,1 C 4,3 C 0,0 km/h (0 Bft) 0,00 %
_ Max-Zeit 15:00 04:30 23:45 00:00 13:00 - - 06:45 00:00 11:45 15:00 19:30 15:00 13:00 00:00
Maximum _ 20,0 C 87 % 1025,9 hPa 0,0 l/m 14,8 km/h
NW (3 Bft)
- - 15 min 0,000 mm 5,0 UV-I 749 W/m 5,1 C 20,0 C 19,8 km/h
NW (3 Bft)
0,00 %
Durchschnitt _ 12,7 C 58 % 1020,5 hPa #0,0 l/m 2,8 km/h (1 Bft) W-SW - #8:30 h #0,000 mm 2,7 UV-I 335 W/m 3,7 C 12,5 C 4,4 km/h (1 Bft) 0,00 %